EN

Hourly Weather Dziekanowice

Today, 26 October, Monday

Time Temperature Precipitation Wind Pressure Humidity
00:00 +12°C° 0 mm 2 mps 739 mmHg 93%
01:00 +12°C° 0 mm 2 mps 739 mmHg 93%
02:00 +10°C° 0 mm 2 mps 739 mmHg 93%
03:00 +10°C° 0 mm 2 mps 739 mmHg 93%
04:00 +9°C° 0 mm 2 mps 738 mmHg 93%
05:00 +9°C° 0 mm 2 mps 738 mmHg 93%
06:00 +9°C° 0 mm 2 mps 738 mmHg 92%
07:00 +9°C° 0 mm 2 mps 738 mmHg 92%
08:00 +12°C° 0 mm 2 mps 738 mmHg 85%
09:00 +13°C° 0 mm 3 mps 738 mmHg 78%
10:00 +16°C° 0 mm 3 mps 738 mmHg 71%
11:00 +17°C° 0 mm 3 mps 738 mmHg 67%
12:00 +18°C° 0 mm 3 mps 738 mmHg 63%
13:00 +19°C° 0 mm 3 mps 738 mmHg 59%
14:00 +18°C° 0 mm 3 mps 737 mmHg 63%
15:00 +17°C° 0 mm 2 mps 737 mmHg 66%
16:00 +16°C° 0 mm 2 mps 737 mmHg 70%
17:00 +16°C° 0 mm 3 mps 737 mmHg 72%
18:00 +14°C° 0 mm 3 mps 737 mmHg 74%
19:00 +14°C° 0 mm 3 mps 737 mmHg 75%
20:00 +14°C° 0 mm 3 mps 738 mmHg 76%
21:00 +14°C° 0 mm 3 mps 738 mmHg 78%
22:00 +13°C° 0 mm 3 mps 738 mmHg 79%
23:00 +13°C° 0 mm 3 mps 738 mmHg 80%

Tomorrow, 27 October, Tuesday

Time Temperature Precipitation Wind Pressure Humidity
00:00 +14°C° 0 mm 2 mps 738 mmHg 82%
01:00 +13°C° 0 mm 2 mps 738 mmHg 83%
02:00 +13°C° 0 mm 2 mps 738 mmHg 85%
03:00 +13°C° 0 mm 2 mps 738 mmHg 86%
04:00 +12°C° 0 mm 2 mps 738 mmHg 87%
05:00 +12°C° 0 mm 2 mps 738 mmHg 87%
06:00 +12°C° 0 mm 2 mps 738 mmHg 87%
07:00 +11°C° 0 mm 3 mps 738 mmHg 87%
08:00 +13°C° 0 mm 3 mps 739 mmHg 80%
09:00 +14°C° 0 mm 3 mps 739 mmHg 73%
10:00 +17°C° 0 mm 3 mps 739 mmHg 66%
11:00 +18°C° 0 mm 3 mps 739 mmHg 62%
12:00 +19°C° 0 mm 3 mps 739 mmHg 58%
13:00 +20°C° 0 mm 3 mps 739 mmHg 53%
14:00 +19°C° 0 mm 3 mps 739 mmHg 59%
15:00 +18°C° 0 mm 2 mps 739 mmHg 64%
16:00 +17°C° 0 mm 2 mps 739 mmHg 69%
17:00 +16°C° 0 mm 2 mps 739 mmHg 72%
18:00 +15°C° 0 mm 2 mps 739 mmHg 76%
19:00 +14°C° 0 mm 2 mps 739 mmHg 79%
20:00 +14°C° 0 mm 2 mps 740 mmHg 79%
21:00 +14°C° 0 mm 2 mps 740 mmHg 79%
22:00 +13°C° 0 mm 2 mps 740 mmHg 79%
23:00 +13°C° 0 mm 2 mps 740 mmHg 82%

Day after tomorrow, 28 October, Wednesday

Time Temperature Precipitation Wind Pressure Humidity
00:00 +13°C° 0 mm 2 mps 741 mmHg 84%
01:00 +12°C° 0 mm 2 mps 741 mmHg 87%
02:00 +12°C° 0 mm 1 mps 741 mmHg 89%
03:00 +11°C° 0 mm 1 mps 741 mmHg 91%
04:00 +11°C° 0 mm 1 mps 741 mmHg 93%
05:00 +11°C° 0 mm 1 mps 742 mmHg 93%
06:00 +11°C° 0 mm 1 mps 742 mmHg 93%
07:00 +9°C° 0 mm 0 mps 742 mmHg 93%
08:00 +12°C° 0 mm 1 mps 742 mmHg 87%
09:00 +13°C° 0 mm 1 mps 742 mmHg 81%
10:00 +15°C° 0 mm 1 mps 742 mmHg 75%
11:00 +16°C° 0 mm 2 mps 742 mmHg 72%
12:00 +16°C° 0 mm 2 mps 742 mmHg 69%
13:00 +17°C° 0 mm 2 mps 742 mmHg 66%
14:00 +16°C° 0 mm 2 mps 742 mmHg 70%
15:00 +16°C° 0 mm 2 mps 742 mmHg 73%
16:00 +15°C° 0 mm 1 mps 742 mmHg 77%
17:00 +15°C° 0 mm 1 mps 742 mmHg 79%
18:00 +14°C° 0 mm 1 mps 742 mmHg 81%
19:00 +14°C° 0 mm 1 mps 742 mmHg 82%
20:00 +13°C° 0 mm 1 mps 742 mmHg 84%
21:00 +13°C° 0 mm 1 mps 742 mmHg 85%
22:00 +13°C° 0 mm 1 mps 742 mmHg 86%
23:00 +12°C° 0 mm 1 mps 742 mmHg 87%

29 October, Thursday

Time Temperature Precipitation Wind Pressure Humidity
00:00 +12°C° 0 mm 1 mps 742 mmHg 89%
01:00 +12°C° 0 mm 2 mps 743 mmHg 90%
02:00 +10°C° 0 mm 2 mps 743 mmHg 90%
03:00 +10°C° 0 mm 2 mps 743 mmHg 90%
04:00 +10°C° 0 mm 2 mps 743 mmHg 90%
05:00 +10°C° 0 mm 2 mps 743 mmHg 91%
06:00 +9°C° 0 mm 2 mps 743 mmHg 91%
07:00 +9°C° 0 mm 2 mps 743 mmHg 91%
08:00 +12°C° 0 mm 2 mps 743 mmHg 84%
09:00 +13°C° 0 mm 2 mps 744 mmHg 78%
10:00 +15°C° 0 mm 2 mps 744 mmHg 71%
11:00 +16°C° 0 mm 3 mps 744 mmHg 65%
12:00 +17°C° 0 mm 3 mps 744 mmHg 60%
13:00 +17°C° 0 mm 4 mps 744 mmHg 54%
14:00 +16°C° 0 mm 3 mps 744 mmHg 59%
15:00 +14°C° 0 mm 3 mps 744 mmHg 64%
16:00 +14°C° 0 mm 2 mps 744 mmHg 69%
17:00 +14°C° 0 mm 2 mps 745 mmHg 70%
18:00 +13°C° 0 mm 2 mps 745 mmHg 72%
19:00 +12°C° 0 mm 3 mps 746 mmHg 73%
20:00 +11°C° 0 mm 3 mps 746 mmHg 76%
21:00 +11°C° 0 mm 3 mps 746 mmHg 78%
22:00 +11°C° 0 mm 3 mps 747 mmHg 80%
23:00 +10°C° 0 mm 3 mps 747 mmHg 82%

30 October, Friday

Time Temperature Precipitation Wind Pressure Humidity
00:00 +10°C° 0 mm 3 mps 747 mmHg 83%
01:00 +9°C° 0 mm 3 mps 747 mmHg 84%
02:00 +9°C° 0 mm 3 mps 747 mmHg 84%
03:00 +9°C° 0 mm 3 mps 747 mmHg 84%
04:00 +9°C° 0 mm 3 mps 747 mmHg 84%
05:00 +9°C° 0 mm 3 mps 747 mmHg 82%
06:00 +9°C° 0 mm 3 mps 747 mmHg 81%
07:00 +9°C° 0 mm 3 mps 747 mmHg 80%
08:00 +10°C° 0 mm 4 mps 747 mmHg 75%
09:00 +12°C° 0 mm 4 mps 747 mmHg 70%
10:00 +13°C° 0 mm 5 mps 748 mmHg 65%
11:00 +14°C° 0 mm 5 mps 747 mmHg 65%
12:00 +14°C° 0 mm 5 mps 747 mmHg 64%
13:00 +14°C° 0 mm 4 mps 747 mmHg 64%
14:00 +14°C° 0 mm 4 mps 747 mmHg 67%
15:00 +13°C° 0 mm 3 mps 747 mmHg 70%
16:00 +14°C° 0 mm 2 mps 747 mmHg 73%
17:00 +13°C° 0 mm 2 mps 747 mmHg 74%
18:00 +13°C° 0 mm 2 mps 748 mmHg 75%
19:00 +12°C° 0 mm 2 mps 748 mmHg 77%
20:00 +12°C° 0 mm 2 mps 748 mmHg 77%
21:00 +12°C° 0 mm 2 mps 748 mmHg 77%
22:00 +12°C° 0 mm 2 mps 748 mmHg 77%
23:00 +10°C° 0 mm 2 mps 748 mmHg 77%

31 October, Saturday

Time Temperature Precipitation Wind Pressure Humidity
00:00 +11°C° 0 mm 1 mps 748 mmHg 77%
01:00 +11°C° 0 mm 1 mps 748 mmHg 78%
02:00 +11°C° 0 mm 1 mps 748 mmHg 78%
03:00 +10°C° 0 mm 1 mps 748 mmHg 79%
04:00 +10°C° 0 mm 1 mps 748 mmHg 79%
05:00 +10°C° 0 mm 1 mps 748 mmHg 80%
06:00 +10°C° 0 mm 1 mps 748 mmHg 81%
07:00 +10°C° 0 mm 1 mps 747 mmHg 81%
Show more